Miscellaneous Local Product
Issued by NWS Hastings, NE

Home | Current Version | Previous Version | Graphics & Text | Print | Product List | Glossary On
Versions: 1 2 3 4 5 6 7 8 9 10 11 12 13 14 15 16 17 18 19 20 21 22 23 24 25 26 27 28 29 30 31 32 33 34 35 36 37 38 39 40 41 42 43 44 45 46 47 48 49 50
194
AXUS43 KGID 301402
MISGRI

GID CWA HOURLY WEATHER ROUNDUP
NATIONAL WEATHER SERVICE HASTINGS NE
900 AM CDT MON MAY 30 2016

NOTE: "FAIR" INDICATES FEW OR NO CLOUDS BELOW 12,000 FEET WITH NO
SIGNIFICANT WEATHER AND/OR OBSTRUCTIONS TO VISIBILITY.

...SOUTH CENTRAL NEBRASKA...

CITY           SKY/WX    TMP DP  RH WIND       PRES   REMARKS
GRAND ISLAND   SUNNY     67  55  65 CALM      30.01S
HASTINGS       MOSUNNY   65  56  72 SE3       30.01R
KEARNEY        PTSUNNY   66  55  68 CALM      30.00F
ORD            MOSUNNY   64  56  75 S3        30.00F
YORK           CLOUDY    66  57  72 CALM      30.01S
AURORA         CLOUDY    65  56  70 SE3       30.00F
LEXINGTON      SUNNY     66  55  67 CALM      30.01F
HOLDREGE       MOSUNNY   68  56  65 S6        30.00S
HEBRON         MOSUNNY   69  61  77 SE7       30.01S

...NEBRASKA PANHANDLE...

CITY           SKY/WX    TMP DP  RH WIND       PRES   REMARKS
CHADRON        CLOUDY    62  52  69 CALM      29.92F
ALLIANCE       SUNNY     60  52  74 SW8       29.97S
SCOTTSBLUFF    SUNNY     60  51  72 NW3       29.98S
SIDNEY         SUNNY     61  51  70 W7        30.02R

...WESTERN AND NORTH CENTRAL NEBRASKA...

CITY           SKY/WX    TMP DP  RH WIND       PRES   REMARKS
VALENTINE      CLOUDY    67  53  61 SE12      29.96S
AINSWORTH      CLOUDY    66  57  74 SE8       29.99S
ONEILL         PTSUNNY   67  59  74 SE7       30.00F
BROKEN BOW     SUNNY     64  56  75 SE6       30.01F
IMPERIAL       SUNNY     62  52  69 SW6       30.01R
NORTH PLATTE   MOSUNNY   63  54  72 SE7       30.01F
MCCOOK         SUNNY     66  54  65 S3        30.00S

...EASTERN NEBRASKA...

CITY           SKY/WX    TMP DP  RH WIND       PRES   REMARKS
NORFOLK        MOSUNNY   69  58  67 SE9       30.00F
SO SIOUX CITY  SUNNY     71  56  58 SE14G20   30.01R
TEKAMAH          N/A     73  57  57 VRB3      30.00F
COLUMBUS       MOSUNNY   70  54  56 E6        30.02F
ALBION         CLOUDY    68  57  68 SE6       30.02S
OMAHA EPPLEY   PTSUNNY   74  64  71 CALM      30.00F
OFFUTT AFB     MOSUNNY   72  62  71 SW1       30.01S
MILLARD        MOSUNNY   72  63  72 CALM      30.01F
LINCOLN        PTSUNNY   69  59  70 E3        30.02S
NEBRASKA CITY  SUNNY     72  62  69 CALM      30.03S
BEATRICE       MOSUNNY   70  60  70 S8        30.02S
FALLS CITY     SUNNY     75  66  73 S7        30.02R

...NORTHERN KANSAS...

CITY           SKY/WX    TMP DP  RH WIND       PRES   REMARKS
GOODLAND       SUNNY     61  52  72 S8        30.02R
HILL CITY      SUNNY     62  55  77 SE3       30.02S
NORTON         SUNNY     64  50  59 SE5       30.01R
PHILLIPSBURG   SUNNY     64  55  72 S8        30.01S
SMITH CENTER   SUNNY     64  57  77 S9        30.01S
BELOIT         SUNNY     68  61  77 CALM      30.00F
HAYS           CLOUDY    63  52  67 CALM      30.02S
RUSSELL        CLOUDY    65  58  78 SW3       30.01
CONCORDIA      SUNNY     70  61  73 SE5       30.02S
SALINA         SUNNY     70  62  76 CALM      30.02F
TOPEKA         MOSUNNY   74  66  76 MISG      30.02F



USA.gov is the U.S. government's official web portal to all federal, state and local government web resources and services.